NJUST-1

Last updated on July 21, 2019, 12:02 a.m. UTC

1 42722U 98067MB  19201.13118119  .02828887  12202-4  39331-3 0  9991
2 42722  51.6139  97.9553 0012743 244.1662 264.8455 16.33980456123504

Satellite is not in orbit.